Weather in Runskiy

Russia / Tver Oblast     57°07′49″N   32°18′21″E
temp.,
°C
wind,
m/s
gust,
m/s
humid.,
%
clouds,
%
prec.,
mm/h
press.,
hPa
HPBL,
m
21 april, wed
wed2100:00+2ese379155 0.0 1014304
03:00+3ene138997 0.0 1012253
06:00+3n2495100 0.0 1008398
09:00+3nw2597100 0.3 1006607
12:00+3wnw3596100 0.4 1005700
15:00+5wnw3783100 0.6 1005741
18:00+7wsw367599 0.2 1004812
21:00+4ssw278880 0.5 1005140
22 april, thu
thu2200:00+4s311888 0.0 1005249
03:00+4s41191100 0.0 1006354
06:00+4ssw41195100 0.1 1006330
09:00+8sw41072100 0.1 1007572
12:00+13sw474522 0.0 10081606
15:00+15ssw463691 0.0 10082454
18:00+14s484427 0.0 10071778
21:00+9ssw2576100 0.3 1007166
23 april, fri
fri2300:00+6wsw3795100 0.3 1008350
03:00+5sw2686100 0.4 1008289
06:00+5ssw398398 0.0 1008512
09:00+6ssw4968100 0.0 10091423
12:00+8ssw6105684 0.2 10091911
15:00+9sw6839100 0.3 10092304
18:00+7wsw485594 0.0 10101383
21:00+3ssw257299 0.0 1011115
24 april, sat
sat2400:00+2ssw2776100 0.0 1010211
03:00+1wsw2584100 0.0 1010184
06:000w2592100 0.0 1009230
09:00+3w3469100 0.0 1009687
12:00+6w345099 0.1 10081769
15:00+7w4545100 0.2 10071803
18:00+6wsw455043 0.3 10061505
21:00+1sw278350 0.4 1006204
25 april, sun
sun2500:00−1sw269769 0.0 1006186
03:00+1wsw2697100 0.2 1005472
06:00+1w2699100 1.6 1004319
09:00+1wsw3698100 2.0 1004479
12:00+3wsw467699 0.3 10051041
15:00+4sw467299 0.9 10051337
18:00+4sw467626 1.1 1005983
21:000s26935 1.3 1005114